+ View the NASA Portal
+ Center for Near-Earth Object Studies
IMPORTANT:
The SSD Announcement email list is now available. Major changes are coming in the near future, including possible hostname and/or URL changes. To be notified of such changes, subscribe to this email list.
Please visit
this page
for more details.
Don't show this message again
JPL Small-Body Database Browser
Search:
[
help
]
214832 (2006 VC93)
Classification:
Main-belt Asteroid
SPK-ID:
2214832
[
Ephemeris
|
Orbit Diagram
|
Orbital Elements
|
Mission Design
|
Physical Parameters
|
Discovery Circumstances
|
Close-Approach Data
]
[ show orbit diagram ]
Orbital Elements at Epoch 2458600.5 (2019-Apr-27.0) TDB
Reference:
JPL 10
(heliocentric ecliptic J2000)
Element
Value
Uncertainty (1-sigma)
Units
e
.07356052181599554
8.4565e-08
a
3.135529453822349
4.46e-08
au
q
2.904878271029753
2.7691e-07
au
i
13.0464780575593
7.2008e-06
deg
node
80.96023173549335
3.8312e-05
deg
peri
121.3574347783607
6.6177e-05
deg
M
308.0083923802382
5.9281e-05
deg
t
p
2458893.383900406486
(2020-Feb-13.88390041)
0.00033664
TDB
period
2027.98507246501
5.55
4.3269e-05
1.185e-07
d
yr
n
.17751609954526
3.7875e-09
deg/d
Q
3.366180636614944
4.788e-08
au
Orbit Determination Parameters
# obs. used (total)
212
data-arc span
7576 days (20.74 yr)
first obs. used
1998-05-08
last obs. used
2019-02-03
planetary ephem.
DE431
SB-pert. ephem.
SB431-N16
condition code
0
norm. resid. RMS
.62422
source
ORB
producer
Otto Matic
solution date
2019-Jul-14 08:32:53
Additional Information
Earth MOID
= 1.92341 au
Jupiter MOID
= 1.71019 au
T_jup
= 3.168
[ show covariance matrix ]
[
Ephemeris
|
Orbit Diagram
|
Orbital Elements
|
Mission Design
|
Physical Parameters
|
Discovery Circumstances
|
Close-Approach Data
]
Physical Parameter Table
Parameter
Symbol
Value
Units
Sigma
Reference
Notes
absolute magnitude
H
15.4
n/a
MPO433405
diameter
diameter
4.562
km
0.900
urn:nasa:pds:neowise_diameters_albedos::2.0[mainbelt] (http://adsabs.harvard.edu/abs/2011ApJ...741...68M)
geometric albedo
albedo
0.064
0.030
urn:nasa:pds:neowise_diameters_albedos::2.0[mainbelt] (http://adsabs.harvard.edu/abs/2011ApJ...741...68M)
214832 (2006 VC93)
Discovered 2006-Nov-15 by Mt. Lemmon Survey at Mount Lemmon
Reference:
20090509/Numbers.arc
Last Updated:
2009-05-11
[ show close-approach data ]
[
Ephemeris
|
Orbit Diagram
|
Orbital Elements
|
Mission Design
|
Physical Parameters
|
Discovery Circumstances
|
Close-Approach Data
]
2019-Dec-15 18:40 UT
(server date/time)
Site Manager:
Ryan S. Park
Webmaster
:
Alan B. Chamberlin